[TLELIST] Archives

 

[list_settings.list_name] Current TLEs

February 9th 2012 PST

HST 1 20580U 90037B 12039.98254251 .00001145 00000-0 72367-4 0 9401 2 20580 028.4702 268.8502 0003398 124.3941 235.6882 15.02169671995283 ISS (ZARYA) 1 25544U 98067A 12040.34620637 .00010226 00000-0 13522-3 0 9760 2 25544 051.6424 048.3133 0020327 023.9443 121.4439 15.58777988757924 CXO 1 25867U 99040B 12042.00000000 -.00000461 00000-0 00000+0 0 7000 2 25867 071.3710 014.2129 8740106 277.8034 000.4901 00.37803670 8674 ____________________________________________________________________ These 2-Line ...Continue Reading

[list_settings.list_name] Current TLEs

February 8th 2012 PST

HST 1 20580U 90037B 12037.98935604 .00001450 00000-0 95032-4 0 9398 2 20580 028.4702 281.8885 0003297 105.0370 255.0571 15.02166594994980 ISS (ZARYA) 1 25544U 98067A 12039.45142810 .00010517 00000-0 13895-3 0 9702 2 25544 051.6416 052.8077 0020467 020.7920 140.1381 15.58758900757783 CXO 1 25867U 99040B 12039.33333333 -.00000395 00000-0 00000+0 0 6993 2 25867 071.3430 014.3759 8738328 277.8270 357.3911 00.37800095 8660 ____________________________________________________________________ These 2-Line ...Continue Reading

[list_settings.list_name] Current TLEs

February 7th 2012 PST

HST 1 20580U 90037B 12036.06260360 .00001506 00000-0 99186-4 0 9381 2 20580 028.4708 294.4865 0003299 082.7422 277.3608 15.02161937994697 ISS (ZARYA) 1 25544U 98067A 12038.35706296 .00008717 00000-0 11648-3 0 9628 2 25544 051.6415 058.3015 0020265 016.6331 119.1954 15.58731602757615 CXO 1 25867U 99040B 12039.33333333 -.00000395 00000-0 00000+0 0 6993 2 25867 071.3430 014.3759 8738328 277.8270 357.3911 00.37800095 8660 ____________________________________________________________________ These 2-Line ...Continue Reading

[list_settings.list_name] Current TLEs

February 6th 2012 PST

HST 1 20580U 90037B 12036.06260360 .00001506 00000-0 99186-4 0 9381 2 20580 028.4708 294.4865 0003299 082.7422 277.3608 15.02161937994697 ISS (ZARYA) 1 25544U 98067A 12037.46015685 .00009498 00000-0 12636-3 0 9573 2 25544 051.6416 062.8004 0020349 013.0440 126.5306 15.58715378757478 CXO 1 25867U 99040B 12036.70833333 -.00000570 00000-0 00000+0 0 6980 2 25867 071.3037 014.6261 8739544 277.8126 359.9667 00.37803937 8658 ____________________________________________________________________ These 2-Line ...Continue Reading

[list_settings.list_name] Current TLEs

February 5th 2012 PST

HST 1 20580U 90037B 12036.06260360 .00001506 00000-0 99186-4 0 9381 2 20580 028.4708 294.4865 0003299 082.7422 277.3608 15.02161937994697 ISS (ZARYA) 1 25544U 98067A 12036.43470789 .00010019 00000-0 13304-3 0 9517 2 25544 051.6414 067.9469 0020234 009.3808 132.2265 15.58696502757314 CXO 1 25867U 99040B 12036.70833333 -.00000570 00000-0 00000+0 0 6980 2 25867 071.3037 014.6261 8739544 277.8126 359.9667 00.37803937 8658 ____________________________________________________________________ These 2-Line ...Continue Reading

[list_settings.list_name] Current TLEs

February 4th 2012 PST

HST 1 20580U 90037B 12035.06600358 .00001502 00000-0 98906-4 0 9379 2 20580 028.4712 301.0061 0003481 070.7555 289.3392 15.02159347994541 ISS (ZARYA) 1 25544U 98067A 12035.41846065 .00007529 00000-0 10173-3 0 9465 2 25544 051.6420 073.0521 0020599 005.1806 190.1848 15.58670710757159 CXO 1 25867U 99040B 12034.04166667 -.00000796 00000-0 00000+0 0 6973 2 25867 071.2763 014.8814 8738014 277.7945 356.8743 00.37799408 8645 ____________________________________________________________________ These 2-Line ...Continue Reading

[list_settings.list_name] Current TLEs

February 3rd 2012 PST

HST 1 20580U 90037B 12033.80363283 .00001564 00000-0 10354-3 0 9369 2 20580 028.4724 309.2623 0003558 058.6018 301.4443 15.02156561994359 ISS (ZARYA) 1 25544U 98067A 12034.44545880 .00011316 00000-0 14957-3 0 9393 2 25544 051.6417 077.9305 0020191 001.8402 130.2047 15.58658292757002 CXO 1 25867U 99040B 12034.04166667 -.00000796 00000-0 00000+0 0 6973 2 25867 071.2763 014.8814 8738014 277.7945 356.8743 00.37799408 8645 ____________________________________________________________________ These 2-Line ...Continue Reading

[list_settings.list_name] Current TLEs

February 2nd 2012 PST

HST 1 20580U 90037B 12031.21246546 .00001872 00000-0 12639-3 0 9342 2 20580 028.4714 326.2091 0003403 033.4542 326.6189 15.02151057993965 ISS (ZARYA) 1 25544U 98067A 12033.41296711 .00012414 00000-0 16357-3 0 9357 2 25544 051.6420 083.1170 0020162 357.5674 097.1781 15.58635094756847 CXO 1 25867U 99040B 12034.04166667 -.00000796 00000-0 00000+0 0 6973 2 25867 071.2763 014.8814 8738014 277.7945 356.8743 00.37799408 8645 ____________________________________________________________________ These 2-Line ...Continue Reading

[list_settings.list_name] Current TLEs

February 1st 2012 PST

HST 1 20580U 90037B 12031.21246546 .00001872 00000-0 12639-3 0 9342 2 20580 028.4714 326.2091 0003403 033.4542 326.6189 15.02151057993965 ISS (ZARYA) 1 25544U 98067A 12032.19682069 .00011877 00000-0 15693-3 0 9271 2 25544 051.6422 089.2176 0020307 353.2379 113.1354 15.58606820756657 CXO 1 25867U 99040B 12031.41666667 -.00000942 00000-0 00000+0 0 6968 2 25867 071.2622 015.0561 8737806 277.8125 359.4397 00.37799248 8635 ____________________________________________________________________ These 2-Line ...Continue Reading

[list_settings.list_name] Current TLEs

January 31st 2012 PST

HST 1 20580U 90037B 12031.21246546 .00001872 00000-0 12639-3 0 9342 2 20580 028.4714 326.2091 0003403 033.4542 326.6189 15.02151057993965 ISS (ZARYA) 1 25544U 98067A 12031.36221133 .00012086 00000-0 15974-3 0 9220 2 25544 051.6423 093.4073 0019974 349.7869 110.5226 15.58586422756523 CXO 1 25867U 99040B 12031.41666667 -.00000942 00000-0 00000+0 0 6968 2 25867 071.2622 015.0561 8737806 277.8125 359.4397 00.37799248 8635 ____________________________________________________________________ These 2-Line ...Continue Reading
  • This mailing list is a public mailing list - anyone may join or leave, at any time.
  • This mailing list is announce-only.

International Space Station (ISS) / Hubble Space Telescope (HST) / Chandra X-Ray Observatory Orbital Data via EMAIL

Privacy Policy:

Private list